Location: Newark
(51.0089°N, 21.5817°E)
Time: 12:40:24
(UTC+00:00)

XW-2F - Pass Details

Date: 28 February 2020
Orbit: 503 x 521 km, 97.5° (Epoch: 06 April)

Event Time Altitude Azimuth Distance (km) Brightness Sun altitude
Rises 03:22:09 0° 34° (NNE) 2,640 ? -19.5°
Reaches altitude 10° 03:26:14 10° 78° (ENE) 1,750 ? -18.9°
Maximum altitude 03:26:47 10° 86° (E) 1,733 ? -18.8°
Drops below altitude 10° 03:27:20 10° 95° (E) 1,749 ? -18.7°
Sets 03:31:25 0° 139° (SE) 2,633 ? -18.1°
